SWA225 KLAX-KLAS

Flight info

Callsign SWA225
Flight time 0h 39m
Altitude 27000
Route ORCKA5 MISEN RNDRZ4
Aircraft B737/M-SDE2E3FGHIRWXY/LB1

Departure

Time 2026-05-04 21:44
Airport Los Angeles International Airport (KLAX)

Arrival

Time 2026-05-04 22:23
Airport Harry Reid International Airport (KLAS)
Time Latitude Longitude Altitude Speed Heading
2026-05-04 21:31 33.94685 -118.40182 94 ft 0 kts 84°
2026-05-04 21:38 33.94683 -118.40203 95 ft 4 kts 76°
2026-05-04 21:38 33.94673 -118.40232 94 ft 4 kts 50°
2026-05-04 21:38 33.94654 -118.40246 94 ft 2 kts 354°
2026-05-04 21:39 33.94653 -118.40246 94 ft 0 kts 353°
2026-05-04 21:40 33.94656 -118.40247 94 ft 2 kts 353°
2026-05-04 21:41 33.94679 -118.40250 95 ft 5 kts 352°
2026-05-04 21:41 33.94714 -118.40256 94 ft 5 kts 353°
2026-05-04 21:41 33.94726 -118.40257 94 ft 0 kts 354°
2026-05-04 21:41 33.94731 -118.40258 96 ft 4 kts 354°
2026-05-04 21:42 33.94796 -118.40268 95 ft 14 kts 348°
2026-05-04 21:42 33.94889 -118.40272 98 ft 14 kts 50°
2026-05-04 21:42 33.94909 -118.40150 99 ft 16 kts 83°
2026-05-04 21:42 33.94923 -118.40013 98 ft 16 kts 83°
2026-05-04 21:43 33.94953 -118.39922 99 ft 11 kts 38°
2026-05-04 21:43 33.95023 -118.39915 108 ft 8 kts 343°
2026-05-04 21:43 33.95039 -118.39977 108 ft 11 kts 263°
2026-05-04 21:43 33.95002 -118.40340 108 ft 80 kts 263°
2026-05-04 21:44 33.94905 -118.41261 111 ft 139 kts 262°
2026-05-04 21:44 33.94826 -118.42512 590 ft 151 kts 264°
2026-05-04 21:44 33.94730 -118.43755 1566 ft 147 kts 261°
2026-05-04 21:44 33.94593 -118.45014 2297 ft 161 kts 260°
2026-05-04 21:45 33.94424 -118.46487 2580 ft 192 kts 259°
2026-05-04 21:45 33.94211 -118.48141 2892 ft 214 kts 259°
2026-05-04 21:45 33.93959 -118.50031 3186 ft 242 kts 259°
2026-05-04 21:45 33.93695 -118.52067 3941 ft 248 kts 261°
2026-05-04 21:46 33.93459 -118.54131 4831 ft 248 kts 262°
2026-05-04 21:46 33.93107 -118.56194 5521 ft 258 kts 244°
2026-05-04 21:46 33.91953 -118.57817 6498 ft 259 kts 218°
2026-05-04 21:46 33.90306 -118.58766 7264 ft 270 kts 197°
2026-05-04 21:47 33.88420 -118.58861 8192 ft 277 kts 173°
2026-05-04 21:47 33.86623 -118.57963 9139 ft 287 kts 146°
2026-05-04 21:47 33.85293 -118.56135 10018 ft 299 kts 120°
2026-05-04 21:47 33.84660 -118.53693 10546 ft 320 kts 97°
2026-05-04 21:48 33.84852 -118.50922 10740 ft 349 kts 72°
2026-05-04 21:48 33.86084 -118.48334 11049 ft 367 kts 44°
2026-05-04 21:48 33.88146 -118.46586 11715 ft 370 kts 25°
2026-05-04 21:48 33.90463 -118.45181 12474 ft 375 kts 26°
2026-05-04 21:49 33.92695 -118.43505 13245 ft 384 kts 36°
2026-05-04 21:49 33.94662 -118.41281 14039 ft 393 kts 50°
2026-05-04 21:49 33.96243 -118.38569 14777 ft 399 kts 58°
2026-05-04 21:49 33.97714 -118.35698 15488 ft 406 kts 58°
2026-05-04 21:50 33.99245 -118.32812 16170 ft 412 kts 56°
2026-05-04 21:50 34.00858 -118.29905 16836 ft 419 kts 56°
2026-05-04 21:50 34.02517 -118.26981 17504 ft 426 kts 55°
2026-05-04 21:50 34.04182 -118.24059 18161 ft 432 kts 55°
2026-05-04 21:51 34.05927 -118.20992 18743 ft 439 kts 55°
2026-05-04 21:51 34.07641 -118.17970 19300 ft 445 kts 55°
2026-05-04 21:51 34.09402 -118.14859 19854 ft 452 kts 55°
2026-05-04 21:51 34.11184 -118.11705 20407 ft 458 kts 55°
2026-05-04 21:52 34.12989 -118.08506 20980 ft 464 kts 55°
2026-05-04 21:52 34.14822 -118.05257 21542 ft 470 kts 55°
2026-05-04 21:52 34.16673 -118.01971 22079 ft 476 kts 55°
2026-05-04 21:52 34.18550 -117.98636 22589 ft 482 kts 55°
2026-05-04 21:53 34.20445 -117.95265 23114 ft 488 kts 56°
2026-05-04 21:53 34.22369 -117.91840 23626 ft 493 kts 55°
2026-05-04 21:53 34.24309 -117.88382 23954 ft 501 kts 56°
2026-05-04 21:53 34.26253 -117.84915 24357 ft 506 kts 56°
2026-05-04 21:54 34.28236 -117.81372 24779 ft 511 kts 56°
2026-05-04 21:54 34.30239 -117.77793 25176 ft 517 kts 56°
2026-05-04 21:54 34.32276 -117.74149 25524 ft 524 kts 57°
2026-05-04 21:54 34.34326 -117.70474 25887 ft 528 kts 56°
2026-05-04 21:55 34.36379 -117.66838 26273 ft 533 kts 55°
2026-05-04 21:55 34.38538 -117.63170 26656 ft 536 kts 54°
2026-05-04 21:55 34.40743 -117.59508 26977 ft 541 kts 54°
2026-05-04 21:55 34.42987 -117.55807 26981 ft 549 kts 54°
2026-05-04 21:56 34.45259 -117.52051 27000 ft 555 kts 54°
2026-05-04 21:56 34.47539 -117.48257 27002 ft 556 kts 54°
2026-05-04 21:56 34.49043 -117.45745 26996 ft 554 kts 54°
2026-05-04 21:56 34.51295 -117.41963 27003 ft 553 kts 54°
2026-05-04 21:57 34.53546 -117.38170 27001 ft 552 kts 54°
2026-05-04 21:57 34.55784 -117.34392 27012 ft 551 kts 54°
2026-05-04 21:57 34.58019 -117.30614 27018 ft 551 kts 54°
2026-05-04 21:57 34.60252 -117.26836 27016 ft 551 kts 54°
2026-05-04 21:58 34.62489 -117.23050 26998 ft 551 kts 54°
2026-05-04 21:58 34.64722 -117.19266 26984 ft 551 kts 54°
2026-05-04 21:58 34.66956 -117.15479 26967 ft 551 kts 54°
2026-05-04 21:58 34.69185 -117.11697 26960 ft 550 kts 54°
2026-05-04 21:59 34.71412 -117.07912 26936 ft 551 kts 54°
2026-05-04 21:59 34.73643 -117.04118 26926 ft 551 kts 54°
2026-05-04 21:59 34.75876 -117.00318 26927 ft 551 kts 54°
2026-05-04 21:59 34.78079 -116.96564 26933 ft 551 kts 54°
2026-05-04 22:00 34.80304 -116.92768 26940 ft 551 kts 54°
2026-05-04 22:00 34.82516 -116.88989 26958 ft 544 kts 54°
2026-05-04 22:00 34.84721 -116.85219 26963 ft 548 kts 54°
2026-05-04 22:00 34.86937 -116.81426 26962 ft 552 kts 54°
2026-05-04 22:01 34.89167 -116.77603 26955 ft 553 kts 54°
2026-05-04 22:01 34.91363 -116.73837 26943 ft 551 kts 54°
2026-05-04 22:01 34.93569 -116.70021 26939 ft 550 kts 55°
2026-05-04 22:01 34.95740 -116.66190 26926 ft 549 kts 56°
2026-05-04 22:02 34.97893 -116.62351 26921 ft 548 kts 56°
2026-05-04 22:02 35.00039 -116.58514 26910 ft 548 kts 56°
2026-05-04 22:02 35.02190 -116.54674 26898 ft 548 kts 56°
2026-05-04 22:02 35.04342 -116.50840 26888 ft 548 kts 56°
2026-05-04 22:03 35.06500 -116.47000 26887 ft 548 kts 56°
2026-05-04 22:03 35.08660 -116.43153 26870 ft 548 kts 55°
2026-05-04 22:03 35.10897 -116.39395 26868 ft 547 kts 49°
2026-05-04 22:03 35.13452 -116.35957 26896 ft 544 kts 44°
2026-05-04 22:04 35.16106 -116.32640 26873 ft 545 kts 43°
2026-05-04 22:04 35.18734 -116.29373 26884 ft 545 kts 44°
2026-05-04 22:04 35.21369 -116.26025 26361 ft 549 kts 44°
2026-05-04 22:04 35.23993 -116.22599 25332 ft 552 kts 46°
2026-05-04 22:05 35.26540 -116.19102 24550 ft 545 kts 47°
2026-05-04 22:05 35.29014 -116.15647 23784 ft 537 kts 47°
2026-05-04 22:05 35.31469 -116.12243 23063 ft 527 kts 47°
2026-05-04 22:05 35.33856 -116.08963 22893 ft 504 kts 46°
2026-05-04 22:06 35.36153 -116.05808 22505 ft 489 kts 46°
2026-05-04 22:06 35.38409 -116.02712 21780 ft 484 kts 47°
2026-05-04 22:06 35.40614 -115.99682 21036 ft 480 kts 47°
2026-05-04 22:06 35.42825 -115.96641 20352 ft 475 kts 47°
2026-05-04 22:07 35.45010 -115.93630 19748 ft 467 kts 47°
2026-05-04 22:07 35.47156 -115.90669 19121 ft 461 kts 48°
2026-05-04 22:07 35.49272 -115.87747 18504 ft 455 kts 48°
2026-05-04 22:07 35.51362 -115.84857 17916 ft 448 kts 48°
2026-05-04 22:08 35.53398 -115.82040 17737 ft 431 kts 48°
2026-05-04 22:08 35.55352 -115.79333 17615 ft 413 kts 48°
2026-05-04 22:08 35.57225 -115.76739 17504 ft 398 kts 48°
2026-05-04 22:08 35.58992 -115.74289 17370 ft 377 kts 49°
2026-05-04 22:09 35.60702 -115.71950 17142 ft 361 kts 48°
2026-05-04 22:09 35.62382 -115.69688 16673 ft 355 kts 47°
2026-05-04 22:09 35.64044 -115.67454 16108 ft 352 kts 47°
2026-05-04 22:09 35.65686 -115.65244 15589 ft 348 kts 48°
2026-05-04 22:10 35.67305 -115.63060 15161 ft 342 kts 49°
2026-05-04 22:10 35.68887 -115.60921 14983 ft 334 kts 48°
2026-05-04 22:10 35.70428 -115.58835 14801 ft 336 kts 48°
2026-05-04 22:10 35.72017 -115.56684 14644 ft 341 kts 47°
2026-05-04 22:11 35.73811 -115.54767 14441 ft 343 kts 32°
2026-05-04 22:11 35.75872 -115.53289 14294 ft 343 kts 28°
2026-05-04 22:11 35.77971 -115.51871 14103 ft 344 kts 28°
2026-05-04 22:11 35.80070 -115.50453 13934 ft 342 kts 28°
2026-05-04 22:12 35.82115 -115.49053 13757 ft 340 kts 28°
2026-05-04 22:12 35.84202 -115.47605 13558 ft 338 kts 29°
2026-05-04 22:12 35.86209 -115.46201 13369 ft 334 kts 29°
2026-05-04 22:12 35.88222 -115.44788 13207 ft 331 kts 29°
2026-05-04 22:13 35.90217 -115.43386 13021 ft 328 kts 29°
2026-05-04 22:13 35.92214 -115.41987 12674 ft 332 kts 29°
2026-05-04 22:13 35.94243 -115.40572 12315 ft 336 kts 29°
2026-05-04 22:13 35.96279 -115.39153 11929 ft 335 kts 29°
2026-05-04 22:14 35.98304 -115.37739 11531 ft 333 kts 30°
2026-05-04 22:14 36.00065 -115.35987 11150 ft 329 kts 53°
2026-05-04 22:14 36.01130 -115.33566 10880 ft 316 kts 76°
2026-05-04 22:14 36.01452 -115.30956 10654 ft 302 kts 95°
2026-05-04 22:15 36.01358 -115.28381 10481 ft 300 kts 98°
2026-05-04 22:15 36.01208 -115.25811 10275 ft 301 kts 99°
2026-05-04 22:15 36.01052 -115.23218 10062 ft 303 kts 98°
2026-05-04 22:15 36.00907 -115.20627 9845 ft 300 kts 98°
2026-05-04 22:16 36.00774 -115.18084 9593 ft 293 kts 98°
2026-05-04 22:16 36.00649 -115.15602 9380 ft 285 kts 99°
2026-05-04 22:16 36.00527 -115.13189 9183 ft 278 kts 98°
2026-05-04 22:16 36.00409 -115.10830 8980 ft 272 kts 99°
2026-05-04 22:17 36.00290 -115.08506 8724 ft 268 kts 99°
2026-05-04 22:17 36.00174 -115.06235 8499 ft 262 kts 99°
2026-05-04 22:17 36.00062 -115.04030 8263 ft 257 kts 99°
2026-05-04 22:17 35.99949 -115.01844 8051 ft 253 kts 99°
2026-05-04 22:18 35.99889 -114.99663 7718 ft 255 kts 95°
2026-05-04 22:18 35.99881 -114.97477 7374 ft 254 kts 95°
2026-05-04 22:18 35.99877 -114.95296 7060 ft 253 kts 94°
2026-05-04 22:18 36.00271 -114.93154 6721 ft 261 kts 66°
2026-05-04 22:19 36.01330 -114.91333 6402 ft 265 kts 44°
2026-05-04 22:19 36.02923 -114.90200 5997 ft 269 kts
2026-05-04 22:19 36.04725 -114.90355 5683 ft 260 kts 335°
2026-05-04 22:19 36.06319 -114.91349 5375 ft 255 kts 321°
2026-05-04 22:20 36.07433 -114.92964 5003 ft 244 kts 284°
2026-05-04 22:20 36.07533 -114.94972 4754 ft 231 kts 257°
2026-05-04 22:20 36.07368 -114.96963 4473 ft 235 kts 264°
2026-05-04 22:20 36.07379 -114.98947 4245 ft 226 kts 265°
2026-05-04 22:21 36.07387 -115.00856 3979 ft 218 kts 265°
2026-05-04 22:21 36.07383 -115.02678 3710 ft 212 kts 265°
2026-05-04 22:21 36.07380 -115.04459 3441 ft 201 kts 264°
2026-05-04 22:21 36.07375 -115.06148 3175 ft 190 kts 264°
2026-05-04 22:22 36.07376 -115.07701 2963 ft 168 kts 263°
2026-05-04 22:22 36.07375 -115.09037 2786 ft 144 kts 262°
2026-05-04 22:22 36.07370 -115.10220 2581 ft 132 kts 259°
2026-05-04 22:22 36.07366 -115.11361 2396 ft 141 kts 264°
2026-05-04 22:23 36.07367 -115.12605 2239 ft 145 kts 265°
2026-05-04 22:23 36.07363 -115.13770 2187 ft 119 kts 266°
2026-05-04 22:23 36.07365 -115.14518 2190 ft 55 kts 270°
2026-05-04 22:23 36.07402 -115.14888 2191 ft 34 kts 294°
2026-05-04 22:24 36.07480 -115.15066 2189 ft 14 kts 304°
2026-05-04 22:24 36.07524 -115.15123 2187 ft 5 kts 321°
2026-05-04 22:24 36.07541 -115.15137 2192 ft 0 kts 328°
2026-05-04 22:25 36.07542 -115.15138 2192 ft 1 kts 328°
2026-05-04 22:25 36.07569 -115.15156 2189 ft 8 kts 334°
2026-05-04 22:26 36.07639 -115.15196 2191 ft 15 kts 334°
2026-05-04 22:26 36.07751 -115.15262 2188 ft 20 kts 334°
2026-05-04 22:26 36.07860 -115.15291 2187 ft 15 kts 36°
2026-05-04 22:26 36.07878 -115.15173 2187 ft 14 kts 92°
2026-05-04 22:27 36.07875 -115.15055 2187 ft 13 kts 92°
2026-05-04 22:27 36.07868 -115.14943 2187 ft 13 kts 94°
2026-05-04 22:27 36.07872 -115.14831 2191 ft 13 kts 52°
2026-05-04 22:27 36.07957 -115.14833 2188 ft 13 kts
2026-05-04 22:28 36.08010 -115.14759 2187 ft 8 kts 58°
2026-05-04 22:28 36.08026 -115.14728 2188 ft 0 kts 58°